Regional Weather Roundup
Issued by NWS Albany, NY

Current Version | Previous Version | Text Only | Print | Product List | Glossary On
Versions: 1 2 3 4 5 6 7 8 9 10 11 12 13 14 15 16 17 18 19 20 21 22 23
000 ASUS41 KALY 301610 RWRALY NEW YORK STATE HOURLY WEATHER ROUNDUP NATIONAL WEATHER SERVICE ALBANY NY 1200 PM EDT THU OCT 30 2014 NOTE: "FAIR" INDICATES FEW OR NO CLOUDS BELOW 12,000 FEET WITH NO SIGNIFICANT WEATHER AND/OR NO OBSTRUCTIONS TO VISIBILITY. NYZ032-033-038>043-046>054-057>066-NYZ062>081-301700- EAST CITY SKY/WX TMP DP RH WIND PRES REMARKS ALBANY NOT AVBL GLENS FALLS NOT AVBL POUGHKEEPSIE NOT AVBL NEW YORK CITY NOT AVBL $$ NYZ005>009-017-018-044>046-055-056-301700- CENTRAL CITY SKY/WX TMP DP RH WIND PRES REMARKS SYRACUSE NOT AVBL ROME NOT AVBL ELMIRA NOT AVBL BINGHAMTON NOT AVBL $$ NYZ026>034-041>043-301700- NORTH CITY SKY/WX TMP DP RH WIND PRES REMARKS WATERTOWN NOT AVBL FORT DRUM NOT AVBL MASSENA NOT AVBL PLATTSBURGH NOT AVBL $$ NYZ001>004-010>016-019>021-301700- WEST CITY SKY/WX TMP DP RH WIND PRES REMARKS BUFFALO NOT AVBL ROCHESTER NOT AVBL $$ KEY WCI = WIND CHILL INDEX VSB = VISIBILITY HX = HEAT INDEX $$

USA.gov is the U.S. government's official web portal to all federal, state and local government web resources and services.